Погода Атырау

Погода Атырау : погода сейчас, прогноз погоды и архив. Всё, что Вы хотите узнать о погоде Атырау!

Хотите узнать прогноз погоды в Атырау? Тогда Вам сюда: Погода в Атырау

Поиск расширенной информации на нашем сайте:

Другие новости

Новости СМИ2

Главная страница сайта

Новости сайта

03.07.2017

Напоминаем, что на нашем специализированном сайте Метеоцентр.Азия вы можете получить высокодетализированные автоматические прогнозы погоды по пунктам России, СНГ и мира в авиационном формате (включающие направление и скорость ветра, видимость, явления погоды, количество и форму облачности, нижнюю и верхнюю границу облачности).


Погода Атырау - сегодня

Время (UTC), дата Ветер
(°,м/с) 
Видим.   Явления Облачность Т
(°С)
Тd
(°С)
f(%) Тe
(°С)
Pmin
(гПа)
dP
(гПа)
Po
(мм)
O2
(г/м3)
Тmin Tmax R s Состояние
почвы
12 09.12.17 310 (СЗ) 20000 м    9/9 300 м 
[Frnb]
-3.6 -6.5 80 -6  1025.1  1.5  771  315           
15 09.12.17 300 (СЗ) 20000 м    10/10 600 м 
[Sc]
-3.5 -6 83 -3  1026.5  1.4  772  316    -2.3       
18 09.12.17 310 (СЗ) 20000 м    10/10 600 м 
[Sc]
-3.4 -7.7 72 -5  1027.7  1.2  773  316    -2.3       
21 09.12.17 310 (СЗ) 20000 м    10/10 600 м 
[Sc]
-3.8 -8.3 71 -5  1028.2  0.5  773  317           
00 10.12.17 240 (ЮЗ) 20000 м    10/10 600 м 
[Sc]
-5.7 -8.7 79 -5  1028.8  0.7  773  319           
03 10.12.17 150 (ЮВ) 20000 м    8/0 средняя 
[Ac und]
-5.5 -8.1 82 -5  1028.6  -0.2  773  319        равномерный
сухой снег
100% 
06 10.12.17 130 (ЮВ) 20000 м    ясно 
-3.9 -8.4 71 -5  1029.3  0.6  774  317  -7         
09 10.12.17 130 (ЮВ) 20000 м    6/6 600 м 
[Sc]
-0.3 -5.4 68 1028.8  -0.5  773  313           
12 10.12.17 160 (Ю) 20000 м    6/6 600 м 
[Sc]
-0.6 -5.4 70 -2  1028.4  -0.4  773  313           
15 10.12.17 110 (В) 20000 м    ясно 
-3 -5.7 82 -4  1028.6  0.2  773  316    +1       
18 10.12.17 110 (В) 20000 м    ясно 
-4 -7.4 77 -6  1028.4  -0.2  773  317    +1       
21 10.12.17 140 (ЮВ) 20000 м    ясно 
-4.6 -7.3 81 -7  1028.1  -0.2  773  318           
00 11.12.17 120 (ЮВ) 20000 м    ясно 
-5.4 -8.3 80 -7  1027.5  -0.6  773  318           
03 11.12.17 100 (В) 20000 м    ясно 
-7 -9.1 85 -10  1027.6  0.1  773  320        сухой снег
50-90% 
06 11.12.17 130 (ЮВ) 20000 м    ясно 
-4.8 -7.6 81 -8  1028.3  0.7  773  318  -7.1         
09 11.12.17 130 (ЮВ) 20000 м    3/0 средняя, верхняя 
[Ac trans|Cs]
-0.1 -5.1 69 -3  1028.9  0.5  773  312           
12 11.12.17 110 (В) 20000 м    9/9 600 м 
[Sc]
-0.1 -4 75 -3  1029.2  0.3  774  312           
15 11.12.17 110 (В) 20000 м    10/10 600 м 
[Sc]
-0.9 -4.1 79 -3  1030.2  774  314    +0.7       
18 11.12.17 140 (ЮВ) 20000 м    10/10 600 м 
[Sc]
-1.3 -4.2 81 -4  1030.6  0.4  775  314    +0.7       
21 11.12.17 130 (ЮВ) 20000 м  {снег}  10/10 600 м 
[Sc]
-1 -3.6 82 -4  1030.4  -0.2  775  314           
00 12.12.17 150 (ЮВ) 20000 м  {снег}  10/10 600 м 
[Sc]
-0.8 -3.3 83 -4  1030  -0.4  774  313           
03 12.12.17 150 (ЮВ) 20000 м    10/10 600 м 
[Sc]
-1 -3.9 81 -4  1030.3  0.3  775  314        сухой снег
50-90% 
06 12.12.17 140 (ЮВ) 20000 м    10/10 300 м 
[Frnb]
-0.5 -3.6 80 -3  1030.6  0.3  775  313  -1.5    0.0     
09 12.12.17 140 (ЮВ) 20000 м  слаб. дождь  10/10 300 м 
[Frnb]
+0.7 -2.2 81 -2  1029.8  -0.8  774  311           
12 12.12.17 150 (ЮВ) 4000 м  слаб. переохл. дождь (гололёд) [диам. гололёда 1 мм]  10/10 600 м 
[Sc]
-0.3 -1.8 90 -2  1030.1  0.3  774  313           
Время (UTC), дата Ветер
(°,м/с) 
Видим.   Явления Облачность Т
(°С)
Тd
(°С)
f(%) Тe
(°С)
Pmin
(гПа)
dP
(гПа)
Po
(мм)
O2
(г/м3)
Тmin Tmax R s Состояние
почвы

Для получения пояснительной информации подведите курсор к названию столбца.

ПОГОДА Атырау - архив

Всё, что Вы хотите узнать о погоде Атырау - удобно и подробно!

Выберите нужную дату (начиная с 1 января 2015* года) и нажмите кнопку "Найти".
Будут отображены архивные сводки погоды по пункту Атырау, начиная с указанной даты.


Отображать данные в формате CSV (для использования в таблицах Excel)


Внимание! Наш архив погоды предназначен исключительно для личного некоммерческого использования в познавательных целях. Если Вам необходимы официальные справки о состоянии погоды (для производственных, юридических, коммерческих и т.п. целей), обращайтесь в органы Росгидромета.

*Примечание: данная дата относится к архиву по метеостанциям СССР (Россия, СНГ, Балтия).
Архив по метеостанциям Зарубежной Европы и Азии (кроме Китая) хранится 10 дней, по другим регионам земного шара (Китай, Африка, Америка, Австралия, Океания) - 1 день.

Атырау - район местоположения метеостанции


Название, широта, долгота, высота метеостанции:
Атырау (город) 47.1°ш. 51.7°д. -23 м над ур. моря [Казахстан]

Дополнительная информация

В oтличие oт бoльшинства пoгoдных сайтoв мы публикуем пoдрoбную метеoинфoрмацию в детальнoм прoфессиoнальнoм фoрмате.

Характеристики температуры и влажнoсти вoздуха измеряются на высoте 2 м в тени вдали oт зданий и деревьев.
Скoрoсть ветра измеряется на высoте 10 м (на урoвне рoста челoвека скoрoсть ветра ниже в 1.5-2 раза). Если метеoстанция нахoдится в гoрoде или в лесу, тo скoрoсть ветра занижена на 2-4 м/с пo сравнению с oткрытым местoм. Скoрoсть ветра над акватoриями крупных рек и oзёр, а также на вершинах хoлмoв на 2-5 м/с выше, чем в oбычных услoвиях.
Атмoсфернoе давление в разных тoчках местнoсти мoжет значительнo oтличаться oт давления на метеoстанции, в зависимoсти oт услoвий рельефа (при пoдъёме на 10 м давление пoнижается примернo на 1 мм рт.ст.).